Total_Precipitation_Accumulation
0.23 0.21 0.21 0.24 0.26 0.30 0.36 0.43 0.49 0.66 0.79 0.85 0.95 1.13 1.30 1.47 1.62 1.74 1.64 1.50 1.46 1.63 1.75 1.69 1.77 1.80 1.67 1.68 1.72 1.79 1.73 1.47 1.33 1.41 1.31 1.04 0.81 0.87 0.86 0.83 0.88 0.94 1.05
0.17 0.13 0.11 0.13 0.16 0.19 0.23 0.29 0.37 0.47 0.59 0.75 0.98 1.18 1.47 1.56 1.64 1.78 1.82 1.76 1.70 1.85 1.89 1.98 2.06 2.10 2.09 2.05 1.94 2.02 2.11 1.85 1.63 1.75 2.04 1.64 1.23 0.88 0.71 0.80 0.85 0.95 1.18
0.12 0.09 0.09 0.08 0.13 0.14 0.15 0.22 0.34 0.47 0.68 0.92 1.23 1.52 1.74 1.82 1.87 1.82 1.89 1.97 2.02 2.08 2.11 2.17 2.24 2.25 2.11 2.10 2.19 2.28 2.61 2.42 2.07 1.89 2.15 1.95 1.62 1.32 0.91 0.84 0.89 0.98 1.15
0.13 0.10 0.11 0.10 0.11 0.14 0.18 0.29 0.47 0.66 0.92 1.26 1.61 1.84 2.06 2.16 2.01 1.99 2.02 2.03 1.99 2.02 2.13 2.14 2.14 2.11 2.06 2.14 2.19 2.22 2.60 2.78 2.49 2.17 1.83 1.62 1.60 1.66 1.36 1.00 0.96 1.04 1.06
0.18 0.16 0.18 0.18 0.21 0.28 0.34 0.50 0.75 1.04 1.32 1.55 1.74 1.94 2.07 2.09 2.07 2.02 2.01 1.95 1.92 1.88 1.92 1.94 2.03 2.06 2.10 2.16 2.33 2.43 2.64 2.66 2.67 2.49 2.31 2.10 1.81 1.47 1.51 1.43 1.18 1.15 1.07
0.23 0.24 0.27 0.33 0.40 0.44 0.57 0.75 0.92 1.21 1.39 1.51 1.62 1.81 1.96 2.01 2.02 2.00 2.00 1.99 1.97 1.87 1.80 1.77 1.83 1.95 2.12 2.18 2.27 2.41 2.63 2.72 2.81 2.74 2.48 2.39 2.23 1.93 1.80 1.55 1.41 1.40 1.21
0.32 0.32 0.42 0.55 0.64 0.67 0.76 0.90 0.98 1.16 1.27 1.32 1.39 1.54 1.61 1.67 1.73 1.72 1.69 1.63 1.59 1.58 1.60 1.68 1.77 1.90 2.02 2.11 2.22 2.36 2.40 2.51 2.74 2.76 2.60 2.39 2.17 2.14 2.04 1.93 1.61 1.44 1.27
0.49 0.58 0.71 0.81 0.87 0.88 0.85 0.86 0.99 1.04 1.02 1.05 1.05 1.18 1.27 1.33 1.40 1.40 1.40 1.43 1.47 1.48 1.41 1.46 1.56 1.79 1.98 2.07 2.16 2.17 2.14 2.19 2.38 2.38 2.45 2.42 2.13 2.07 1.98 1.97 2.04 1.76 1.57
0.73 0.94 1.12 1.23 1.30 1.21 1.01 0.88 0.88 0.88 0.85 0.91 0.95 0.99 1.08 1.13 1.16 1.20 1.15 1.25 1.30 1.29 1.23 1.25 1.29 1.42 1.65 1.91 2.06 2.00 1.92 1.88 2.04 2.10 2.19 2.30 2.32 2.23 2.14 2.11 2.16 2.10 1.84
1.16 1.41 1.64 1.76 1.73 1.54 1.27 0.99 0.83 0.80 0.77 0.80 0.84 0.90 0.94 0.96 0.95 0.99 0.94 1.00 1.10 1.09 1.09 1.09 1.14 1.27 1.38 1.58 1.81 1.91 1.85 1.82 1.87 1.98 2.10 2.24 2.33 2.38 2.19 2.15 2.12 1.98 1.88
1.59 1.73 1.88 1.92 1.66 1.48 1.24 0.98 0.82 0.85 0.87 0.86 0.86 0.85 0.82 0.81 0.81 0.81 0.78 0.82 0.89 0.89 0.92 1.08 1.13 1.19 1.25 1.43 1.69 1.87 1.87 1.79 1.79 1.78 1.87 2.04 2.12 2.34 2.31 2.23 2.12 1.99 1.82
1.34 1.41 1.47 1.43 1.38 1.34 1.16 1.01 0.92 0.93 0.97 0.97 0.97 0.90 0.81 0.76 0.75 0.73 0.66 0.67 0.65 0.64 0.76 0.90 0.94 0.97 1.00 1.18 1.47 1.67 1.71 1.67 1.58 1.57 1.69 1.91 2.08 2.29 2.39 2.34 2.21 2.11 1.98
1.16 1.15 1.16 1.18 1.20 1.17 1.06 1.05 1.02 1.03 1.03 1.01 0.91 0.83 0.76 0.66 0.61 0.54 0.50 0.57 0.59 0.65 0.77 0.86 0.91 0.93 0.98 1.01 1.11 1.27 1.39 1.37 1.31 1.34 1.41 1.47 1.67 1.96 2.14 2.16 2.18 2.21 2.19
0.93 0.92 0.96 1.01 1.09 1.07 1.04 0.99 0.95 0.99 1.09 1.14 1.03 0.92 0.80 0.70 0.64 0.55 0.51 0.50 0.53 0.60 0.68 0.76 0.82 0.89 0.95 0.95 0.96 0.98 1.05 1.06 1.11 1.17 1.22 1.26 1.31 1.54 1.72 1.81 2.00 2.23 2.24
0.63 0.66 0.70 0.70 0.67 0.63 0.66 0.70 0.76 0.87 1.02 1.16 1.14 1.00 0.81 0.68 0.62 0.59 0.51 0.49 0.50 0.51 0.58 0.65 0.69 0.74 0.83 0.92 0.95 0.82 0.77 0.84 0.95 0.98 0.96 0.98 1.05 1.19 1.29 1.36 1.72 2.06 2.24
0.39 0.38 0.38 0.39 0.38 0.34 0.31 0.31 0.39 0.55 0.79 1.05 1.02 0.81 0.64 0.51 0.48 0.49 0.48 0.44 0.43 0.48 0.53 0.52 0.56 0.68 0.72 0.86 0.84 0.67 0.65 0.68 0.78 0.87 0.87 0.77 0.76 0.81 0.87 0.96 1.14 1.41 1.66
0.28 0.28 0.26 0.26 0.25 0.23 0.21 0.23 0.31 0.43 0.59 0.71 0.68 0.58 0.47 0.45 0.48 0.50 0.46 0.44 0.45 0.45 0.47 0.46 0.48 0.53 0.67 0.72 0.58 0.55 0.57 0.64 0.69 0.75 0.82 0.75 0.65 0.72 0.76 0.86 0.93 0.95 1.02
0.19 0.20 0.19 0.18 0.20 0.21 0.24 0.27 0.31 0.37 0.42 0.46 0.47 0.42 0.39 0.41 0.43 0.44 0.44 0.51 0.56 0.53 0.52 0.53 0.52 0.52 0.58 0.57 0.47 0.50 0.52 0.57 0.62 0.70 0.79 0.85 0.78 0.77 0.88 0.88 0.91 0.87 0.83
0.11 0.11 0.11 0.10 0.11 0.11 0.12 0.13 0.15 0.16 0.17 0.17 0.19 0.19 0.19 0.21 0.22 0.24 0.30 0.41 0.48 0.51 0.54 0.58 0.58 0.53 0.50 0.52 0.44 0.46 0.52 0.56 0.61 0.63 0.68 0.76 0.74 0.88 0.97 0.97 1.10 1.08 0.96
0.08 0.08 0.08 0.08 0.09 0.09 0.08 0.05 0.05 0.06 0.06 0.06 0.07 0.09 0.10 0.10 0.10 0.13 0.16 0.23 0.24 0.30 0.40 0.43 0.46 0.49 0.48 0.60 0.48 0.49 0.52 0.61 0.70 0.71 0.69 0.83 0.83 0.89 0.89 0.87 1.11 1.13 1.01
0.09 0.08 0.08 0.08 0.10 0.10 0.09 0.08 0.06 0.05 0.06 0.07 0.09 0.09 0.09 0.08 0.08 0.09 0.11 0.14 0.15 0.20 0.24 0.28 0.34 0.42 0.50 0.61 0.59 0.63 0.63 0.69 0.82 0.79 0.72 0.66 0.77 0.66 0.73 0.77 0.82 1.03 1.02
0.08 0.08 0.07 0.08 0.09 0.09 0.09 0.09 0.09 0.08 0.07 0.08 0.08 0.09 0.09 0.10 0.09 0.09 0.10 0.11 0.13 0.14 0.16 0.18 0.23 0.31 0.39 0.47 0.53 0.55 0.59 0.67 0.76 0.81 0.69 0.66 0.73 0.58 0.56 0.58 0.70 0.86 0.97
0.07 0.07 0.08 0.08 0.09 0.09 0.09 0.09 0.10 0.10 0.09 0.09 0.09 0.09 0.10 0.10 0.09 0.10 0.12 0.11 0.12 0.14 0.16 0.18 0.25 0.32 0.38 0.43 0.41 0.38 0.42 0.50 0.59 0.62 0.66 0.65 0.61 0.55 0.51 0.51 0.58 0.67 0.78
0.06 0.07 0.08 0.08 0.09 0.10 0.10 0.11 0.11 0.10 0.08 0.09 0.10 0.11 0.11 0.11 0.11 0.11 0.12 0.12 0.13 0.14 0.18 0.23 0.28 0.34 0.37 0.40 0.39 0.41 0.44 0.44 0.47 0.47 0.47 0.50 0.53 0.56 0.55 0.52 0.55 0.62 0.73
0.08 0.10 0.11 0.10 0.10 0.11 0.12 0.14 0.14 0.11 0.09 0.09 0.10 0.10 0.10 0.10 0.10 0.11 0.10 0.10 0.10 0.13 0.20 0.27 0.32 0.32 0.32 0.28 0.29 0.41 0.50 0.57 0.62 0.68 0.61 0.62 0.63 0.60 0.55 0.52 0.52 0.58 0.64
0.08 0.09 0.11 0.11 0.10 0.10 0.11 0.13 0.15 0.16 0.15 0.12 0.10 0.10 0.09 0.09 0.09 0.10 0.10 0.10 0.10 0.14 0.17 0.17 0.19 0.20 0.20 0.21 0.24 0.30 0.41 0.50 0.63 0.78 0.81 0.84 0.86 0.80 0.70 0.61 0.53 0.49 0.52